Regional Weather Roundup
Issued by NWS

Home | Current Version | Previous Version | Text Only | Print | Product List | Glossary On
Versions: 1 2 3 4 5 6 7 8 9 10 11 12 13 14 15 16 17 18 19 20 21 22 23 24 25 26 27 28 29 30 31 32 33 34 35 36 37 38 39 40 41 42 43 44 45 46 47 48 49 50
000
ASUS45 KABQ 010010
RWRNM
NEW MEXICO REGIONAL WEATHER ROUNDUP
NATIONAL WEATHER SERVICE ALBUQUERQUE NM
600 PM MDT TUE MAY 31 2016

NOTE: "FAIR" MEANS FEW OR NO CLOUDS BELOW 12,000 FEET AGL WITH NO
       SIGNIFICANT WEATHER OR OBSTRUCTIONS TO VISION.

      THIS PRODUCT IS RELEASED AS TWO VERSIONS.  ONE VERSION NEAR
      THE TOP OF THE HOUR CONTAINING PRELIMINARY DATA FROM ALBUQUERQUE
      AND OTHER STATIONS.  A FINAL VERSION WITH ADDITIONAL DATA IS
      ISSUED ABOUT 10 MINUTES AFTER THE HOUR.

NMZ501-503-504-510>518-010100-
NORTHWEST PLATEAU/NORTHCENTRAL MOUNTAINS

CITY           SKY/WX    TMP DP  RH WIND       PRES   REMARKS
FARMINGTON     FAIR      83   9   6 W12G20    29.90S
6HR MIN TEMP:  76; 6HR MAX TEMP:  84;

LOS ALAMOS     FAIR      62  36  37 S12       30.11R
SANTA FE       FAIR      64  38  38 S15       30.06R
6HR MIN TEMP:  64; 6HR MAX TEMP:  78; 6HR PCP: TRACE;

TAOS           FAIR      63  34  34 SE15      30.07F
ANGEL FIRE     FAIR      53  36  52 S8        30.19R

$$
NMZ402-403-502-505>509-010100-
WESTCENTRAL MOUNTAINS/SOUTHWEST MOUNTAINS

CITY           SKY/WX    TMP DP  RH WIND       PRES   REMARKS
GALLUP         FAIR      77  21  12 N7G17     29.98F
6HR MIN TEMP:  73; 6HR MAX TEMP:  80;

GRANTS         PTSUNNY   73  30  20 S17G24    30.02R
SILVER CITY      N/A     77  25  14 SW12      29.95S

$$
NMZ407-409-411-412-010100-
SOUTHERN DESERTS

CITY           SKY/WX    TMP DP  RH WIND       PRES   REMARKS
LORDSBURG      FAIR      81  36  19 SE20G25   29.87R
DEMING         FAIR      82  30  15 S15       29.87S
6HR MIN TEMP:  80; 6HR MAX TEMP:  86;

LAS CRUCES     FAIR      82  28  14 S10G17    29.90S
HOLLOMAN AFB   PTSUNNY   80  44  28 NW26G40   29.86R
ALAMOGORDO     PTSUNNY   82  36  18 SW10G17   29.86S
T OR C         FAIR      81  30  15 SW13      29.89S
6HR MIN TEMP:  75; 6HR MAX TEMP:  83; 6HR PCP: TRACE;


$$
NMZ519>523-010100-
CENTRAL VALLEYS/CENTRAL HIGHLANDS

CITY           SKY/WX    TMP DP  RH WIND       PRES   REMARKS
ALBUQUERQUE    PTSUNNY   71  36  27 E28G33    29.99R
6HR MIN TEMP:  71; 6HR MAX TEMP:  78; 6HR PCP: TRACE;

DOUBLE EAGLE   PTSUNNY   68  41  37 NE22G33   30.03R
MORIARTY ARPT  CLOUDY    56  43  61 SE18      30.13R
6HR MIN TEMP:  56; 6HR MAX TEMP:  75; 6HR PCP:  0.01;

CLINES CORNERS RAIN      50  45  83 S10       30.17R
6HR MIN TEMP:  49; 6HR MAX TEMP:  72; 6HR PCP:  0.37;

BELEN          FAIR      68  34  27 SE12      29.97R
6HR MIN TEMP:  67; 6HR MAX TEMP:  81;

SOCORRO        FAIR      73  39  29 NE13      29.96R
6HR MIN TEMP:  72; 6HR MAX TEMP:  85;


$$
NMZ524>526-539-540-010100-
SOUTHCENTRAL MOUNTAINS

CITY           SKY/WX    TMP DP  RH WIND       PRES   REMARKS
RUIDOSO          N/A     64  36  34 CALM      30.10R

$$
NMZ527>531-010100-
NORTHEAST HIGHLANDS/NORTHEAST PLAINS

CITY           SKY/WX    TMP DP  RH WIND       PRES   REMARKS
LAS VEGAS      FAIR      52  45  77 N7        30.14R
6HR MIN TEMP:  47; 6HR MAX TEMP:  71; 6HR PCP:  0.39;

RATON          FAIR      55  47  74 W8        30.06F
6HR MIN TEMP:  44; 6HR MAX TEMP:  70; 6HR PCP:  1.22;

CLAYTON        FAIR      71  49  45 SE7       30.01S
6HR MIN TEMP:  65; 6HR MAX TEMP:  74;


$$
NMZ532>537-010100-
EASTCENTRAL PLAINS

CITY           SKY/WX    TMP DP  RH WIND       PRES   REMARKS
TUCUMCARI      FAIR      75  48  38 E12       29.93R
6HR MIN TEMP:  75; 6HR MAX TEMP:  82;

CANNON AFB     PTSUNNY   76  51  41 E15       29.93R
6HR MIN TEMP:  71; 6HR MAX TEMP:  77;

CLOVIS AIRPORT PTSUNNY   77  50  38 E14       29.94R

$$
NMZ028-029-538-010100-
SOUTHEAST PLAINS

CITY           SKY/WX    TMP DP  RH WIND       PRES   REMARKS
ROSWELL        FAIR      78  42  27 S9        29.88R
6HR MIN TEMP:  67; 6HR MAX TEMP:  83; 6HR PCP: TRACE;

ARTESIA        FAIR      75  52  43 E15G24    29.87F
CARLSBAD       FAIR      69  59  70 N10       29.84F
6HR MIN TEMP:  65; 6HR MAX TEMP:  89; 6HR PCP: TRACE;

HOBBS          PTSUNNY   82  45  26 W20       29.88R


$$



USA.gov is the U.S. government's official web portal to all federal, state and local government web resources and services.